This is the latest recevied weather packets stored in our database for station/object DL9RAN-11. If no packets are shown the sender has not sent any weather packets the latest 10 day(s).
| Time | Temp. | Humidity | Pressure | Rain* | Wind** | Luminosity | Snow |
|---|---|---|---|---|---|---|---|
| 1777462431 | 18.33° C | 32% | 1025.4 hPa | - | - | - | - |
| 1777461468 | 18.33° C | 33% | 1025.6 hPa | - | - | - | - |
| 1777461168 | 18.33° C | 33% | 1025.6 hPa | - | - | - | - |
| 1777460868 | 18.89° C | 33% | 1025.6 hPa | - | - | - | - |
| 1777459905 | 18.89° C | 32% | 1025.7 hPa | - | - | - | - |
| 1777459605 | 18.89° C | 33% | 1025.7 hPa | - | - | - | - |
| 1777459304 | 18.33° C | 33% | 1025.7 hPa | - | - | - | - |
| 1777458673 | 18.33° C | 33% | 1025.6 hPa | - | - | - | - |
| 1777458042 | 18.33° C | 33% | 1025.7 hPa | - | - | - | - |
| 1777457410 | 18.33° C | 33% | 1025.7 hPa | - | - | - | - |
| 1777457110 | 18.33° C | 34% | 1025.6 hPa | - | - | - | - |
| 1777456147 | 17.22° C | 35% | 1025.7 hPa | - | - | - | - |
| 1777455847 | 17.22° C | 35% | 1025.4 hPa | - | - | - | - |
| 1777455215 | 17.22° C | 33% | 1025.4 hPa | - | - | - | - |
| 1777454584 | 17.22° C | 35% | 1025.4 hPa | - | - | - | - |
| 1777453621 | 16.11° C | 36% | 1025.4 hPa | - | - | - | - |
| 1777453321 | 15.56° C | 36% | 1025.5 hPa | - | - | - | - |
| 1777453020 | 15.56° C | 36% | 1025.3 hPa | - | - | - | - |
| 1777452720 | 15.56° C | 36% | 1025.4 hPa | - | - | - | - |
| 1777451095 | 14.44° C | 38% | 1025 hPa | - | - | - | - |
| 1777450795 | 14.44° C | 38% | 1025 hPa | - | - | - | - |
| 1777450495 | 13.89° C | 38% | 1025 hPa | - | - | - | - |
| 1777450194 | 13.89° C | 38% | 1025 hPa | - | - | - | - |
| 1777449894 | 13.89° C | 39% | 1025 hPa | - | - | - | - |
| 1777449262 | 13.89° C | 39% | 1025 hPa | - | - | - | - |
* Rain since midnight (hover to see other rain measurements)
** Current wind speed in m/s (hover to see current wind gust speed)